Miscellaneous Local Product
Issued by NWS Hastings, NE

Home | Current Version | Previous Version | Text Only | Print | Product List | Glossary Off
Versions: 1 2 3 4 5 6 7 8 9 10 11 12 13 14 15 16 17 18 19 20 21 22 23 24 25 26 27 28 29 30 31 32 33 34 35 36 37 38 39 40 41 42 43 44 45 46 47 48 49 50

000
AXUS43 KGID 191402
MISGRI

GID CWA HOURLY WEATHER ROUNDUP
NATIONAL WEATHER SERVICE HASTINGS NE
900 AM CDT SAT APR 19 2014

NOTE: "FAIR" INDICATES FEW OR NO CLOUDS BELOW 12,000 FEET WITH NO
SIGNIFICANT WEATHER AND/OR OBSTRUCTIONS TO VISIBILITY.

...SOUTH CENTRAL NEBRASKA...

CITY           SKY/WX    TMP DP  RH WIND       PRES   REMARKS
GRAND ISLAND   PTSUNNY   59  46  62 S13       30.01R
HASTINGS       PTSUNNY   59  45  59 S13G23    29.99R
KEARNEY        PTSUNNY   54  46  76 S6        29.99R
ORD            MOSUNNY   55  46  71 S6        29.97S
YORK           MOSUNNY   59  45  58 S20G28    30.02R
AURORA         PTSUNNY   57  45  63 S15       30.01R
LEXINGTON      MOSUNNY   55  48  76 SE6       29.96S
HOLDREGE       PTSUNNY   55  47  73 S7        29.96R
HEBRON         PTSUNNY   57  44  61 S16G26    30.01S

...NEBRASKA PANHANDLE...

CITY           SKY/WX    TMP DP  RH WIND       PRES   REMARKS
CHADRON        CLOUDY    47  38  71 CALM      30.04R
ALLIANCE       CLOUDY    45  36  70 N7        30.03R
SCOTTSBLUFF    CLOUDY    49  38  65 CALM      30.05R
SIDNEY         CLOUDY    48  37  65 NE17      30.03R

...WESTERN AND NORTH CENTRAL NEBRASKA...

CITY           SKY/WX    TMP DP  RH WIND       PRES   REMARKS
VALENTINE      CLOUDY    50  36  58 NW6       30.01R
AINSWORTH      CLOUDY    51  39  64 N9        30.01R
ONEILL         MOSUNNY   57  43  59 W8        29.97S
BROKEN BOW     MOSUNNY   54  47  77 S5        29.97R
IMPERIAL       MOSUNNY   48  44  86 N10       29.94R
NORTH PLATTE   PTSUNNY   54  46  74 E5        29.96R
MCCOOK         CLOUDY    54  48  80 E5        29.93R

...EASTERN NEBRASKA...

CITY           SKY/WX    TMP DP  RH WIND       PRES   REMARKS
NORFOLK        PTSUNNY   57  42  57 S7        30.01R
SO SIOUX CITY  PTSUNNY   58  42  55 S14       30.03S
TEKAMAH        MOSUNNY   63  41  44 S18       30.06R
COLUMBUS       MOSUNNY   57  43  58 S12       30.02F
ALBION         MOSUNNY   54  42  63 S10       29.99S
OMAHA EPPLEY   PTSUNNY   59  41  51 S16       30.07R
OFFUTT AFB     PTSUNNY   60  43  53 S14       30.07R
MILLARD        PTSUNNY   58  41  54 S12G17    30.06R
LINCOLN        MOSUNNY   61  42  49 S17       30.03R
NEBRASKA CITY  PTSUNNY   58  42  55 S15       30.07F
BEATRICE       PTSUNNY   58  41  53 S16       30.04R
FALLS CITY     MOSUNNY   61  44  53 S13       30.10F

...NORTHERN KANSAS...

CITY           SKY/WX    TMP DP  RH WIND       PRES   REMARKS
GOODLAND       MOSUNNY   54  43  66 W10       29.92R
HILL CITY      CLOUDY    59  47  64 S13G21    29.94R
PHILLIPSBURG   SUNNY     61  46  59 S17G24    29.97R
SMITH CENTER   SUNNY     59  46  63 S23G29    29.96F
BELOIT         SUNNY     59  46  63 SE15G21   30.01S
HAYS           CLOUDY    59  46  63 S24G32    29.97F
RUSSELL        CLOUDY    61  48  62 S29G39    29.98S
CONCORDIA      CLOUDY    58  46  64 S21G33    30.02F
SALINA         CLOUDY    61  46  57 S18G32    30.05F
TOPEKA         MOSUNNY   60  43  53 S8        30.15R



USA.gov is the U.S. government's official web portal to all federal, state and local government web resources and services.